Location: Recife
(8.0585°S, 34.8848°W)
Time: 12:36:58
(UTC-03:00)

Injun/Solrad 3 - Pass Details

Date: 22 April 2026
Orbit: 868 x 988 km, 66.8° (Epoch: 12 May)

Event Time Altitude Azimuth Distance (km) Brightness Sun altitude
Rises 07:29:53 0° 321° (NW) 3,679 10.8 29.8°
Reaches altitude 10° 07:32:41 10° 313° (NW) 2,730 10.2 30.4°
Maximum altitude 07:38:25 35° 249° (WSW) 1,518 8.9 31.8°
Drops below altitude 10° 07:44:07 10° 184° (S) 2,694 10.2 33.1°
Sets 07:46:53 0° 175° (S) 3,626 10.8 33.7°
